Location: Bogis-Bossey
(46.3500°N, 6.1667°E)
Time: 16:49:48
(UTC+00:00)

CENTAUR R/B - Pass Details

Date: 17 August 2022
Orbit: 710 x 1477 km, 63.4° (Epoch: 22 August)

Event Time Altitude Azimuth Distance (km) Brightness Sun altitude
Rises 23:28:21 0° 318° (NW) 4,216 6.5 -30.4°
Reaches altitude 10° 23:31:05 10° 315° (NW) 3,336 5.8 -30.4°
Maximum altitude 23:39:08 55° 241° (WSW) 1,681 3.4 -30.5°
Enters shadow 23:39:36 54° 230° (SW) 1,695 3.4 -30.5°
